Retour au catalogue

EXPRESS AT2

ActifCommunicationsGEO
NORAD 39613·PAYLOAD·🇷🇺 Russia

Lancé Mar 15, 2014 depuis Baikonur Cosmodrome

Loading…

TLE

FraisSource: Space-Track

Époque: Sep 14, 2026, 14:04 UTC

1 39613U 14010B   26257.58619440  .00000071  00000-0  00000-0 0  9995
2 39613   0.0272 256.6516 0000406 181.6965 182.2630  1.00271067 45399

Suivez EXPRESS AT2 en temps réel avec AllMySat

Download on the App Store